sat.trackr.live / text

‹ back to catalog

EXPRESS-AMU1

NORAD 41191 · 2015-082A

PAYLOAD ACTIVE UNKNOWN

§ Identity

Operator
Country
CIS
Launch date
2015-12-24
Launch site
TYMSC
Launch vehicle
Mass (kg)
RCS (m²)
19.26

Purposes: comms

External: N2YO · Heavens-Above · Gunter

§ Orbital elements

Epoch: 2026-05-25T03:54:53.777088Z

Period
1,436.12 min
Inclination
0.0175°
Eccentricity
0.0002968
Mean motion
1.00269974 rev/d
Perigee alt
35,774.6 km
Apogee alt
35,799.6 km
Semi-major
42,165.2 km
B*
0.0000e+0
RAAN
319.3600°
Arg perigee
100.2076°
Mean anomaly
278.0060°
Rev number
3,803

§ Raw data

EXPRESS-AMU11 41191U 15082A   26145.16312242  .00000153  00000+0  00000+0 0  99982 41191   0.0175 319.3600 0002968 100.2076 278.0060  1.00269974 38039

JSON: /api/v1/satellites/41191 · /tle

For live sub-satellite position, see the globe view (requires WebGL).

§ Visibility from observer

Set your observer location to see the next 7 days of passes ≥ 10°. The values pass through the URL so the page stays shareable.

No JS? Fill the form by hand. The geolocation button needs JavaScript.